Wind_Speed
22 23 23 23 23 23 23 23 23 23 23 23 22 23 23 24 25 25 26 26 27 27 28 28 29 29 30 30 30 31 31 30 31 31 31 31 30 30 30 29 28 28 27 27 27 27 27 27 27 28 29 30 30 30 30 31 32 33 34 35 36 38 38 38 39 39 39 38 37 36 35 34 33 33 34 33 31 29 27 25 25 25 24 23 22 22 21 18
22 22 23 23 23 23 24 24 24 24 23 23 22 22 22 23 23 23 24 24 25 25 25 25 26 27 27 28 28 29 29 29 29 30 30 31 31 30 30 30 30 30 29 28 28 28 28 28 28 29 29 30 31 31 31 31 32 33 34 35 36 37 38 39 39 39 40 40 40 38 37 36 35 35 35 33 30 28 26 26 26 25 25 25 24 23 23 21
21 22 22 22 23 23 24 24 24 24 24 23 23 22 23 23 23 23 23 23 24 24 24 24 24 24 25 25 26 26 26 27 27 28 29 29 30 30 30 30 31 31 31 30 30 30 29 29 29 29 30 30 31 31 32 33 33 33 34 35 36 37 38 39 40 40 40 41 41 41 39 39 37 37 36 34 32 29 27 26 26 26 26 26 26 25 24 23
22 22 22 22 22 23 23 24 24 24 24 24 24 23 23 24 24 24 23 24 24 24 23 23 23 23 23 24 23 24 24 25 26 26 27 27 28 29 29 29 30 31 32 32 31 31 31 30 30 31 31 31 31 32 32 33 34 34 35 35 36 37 38 39 40 40 41 41 41 41 41 41 40 39 37 36 33 30 28 28 28 27 27 27 27 27 26 25
22 22 22 22 22 23 23 23 24 24 24 24 24 24 24 24 24 24 25 25 25 25 24 24 24 24 24 24 23 24 24 24 25 25 26 26 27 27 28 28 29 30 31 32 32 33 32 32 32 32 32 32 32 32 33 34 34 35 35 36 36 37 37 38 39 40 41 42 42 42 41 42 42 41 39 38 35 32 30 30 31 30 29 28 28 27 26 25
23 23 23 23 23 23 23 24 24 24 24 24 24 24 24 24 25 25 25 25 26 25 25 25 25 25 25 25 24 25 25 25 25 25 26 26 27 27 27 27 28 29 30 31 32 33 33 33 33 33 33 33 33 33 34 34 35 35 36 37 37 37 38 38 39 40 41 41 42 42 42 43 43 43 41 40 38 35 34 33 33 32 30 30 29 29 27 26
23 24 24 24 24 24 24 24 25 25 25 25 25 24 24 25 25 25 25 26 26 26 26 26 26 25 26 26 26 26 26 26 27 26 26 26 27 27 27 27 27 28 28 29 30 32 33 33 34 34 35 35 34 34 34 35 35 36 36 37 38 38 38 39 39 40 41 41 42 42 43 43 43 43 43 42 41 39 38 37 35 34 32 31 30 29 28 26
24 24 25 25 25 25 26 26 26 26 26 26 25 25 25 25 25 26 26 26 26 27 26 26 26 26 26 26 27 27 27 27 27 28 28 28 28 28 27 28 28 29 29 29 30 31 32 33 34 34 35 36 36 36 35 35 36 36 37 37 38 39 39 39 40 40 40 41 41 42 43 44 44 43 43 43 43 42 42 41 38 36 34 32 31 30 28 27
24 25 25 26 26 26 27 27 27 27 27 27 26 26 26 26 26 27 27 27 27 27 27 27 27 27 27 27 27 28 28 28 28 28 28 28 29 29 29 29 29 30 30 30 30 31 31 32 33 34 35 36 37 37 37 37 36 36 37 38 38 39 39 39 40 40 41 41 41 42 43 44 44 43 43 43 44 43 43 43 41 39 36 34 33 31 29 28
25 25 26 26 27 27 28 28 29 29 29 28 28 28 27 27 27 27 28 28 28 28 28 28 28 28 28 28 28 29 29 29 29 29 29 29 29 30 30 30 31 31 31 32 32 32 32 32 32 33 34 35 36 38 38 38 38 37 37 38 39 39 39 40 40 41 41 41 42 43 43 44 43 43 43 43 44 43 42 43 42 40 39 37 35 33 31 29
26 26 26 27 27 28 28 29 30 30 30 30 30 29 29 28 28 28 29 29 29 29 29 29 30 30 30 30 30 30 30 30 30 30 30 31 31 31 31 32 32 32 33 33 33 34 34 34 33 33 33 34 36 37 39 39 40 39 38 38 38 39 40 40 41 41 41 42 43 43 43 43 44 44 44 43 44 44 43 42 42 41 40 39 38 36 33 31
26 27 27 28 28 29 29 30 30 31 31 31 31 30 30 30 29 30 30 30 30 30 30 31 31 31 31 31 31 32 32 32 32 32 32 32 32 33 33 33 34 34 34 34 35 35 35 35 35 34 34 34 35 37 38 39 40 41 40 39 38 39 40 41 41 41 42 42 43 43 42 42 43 45 45 45 44 44 44 43 42 41 40 40 39 38 36 34
27 27 28 28 29 30 30 30 31 31 32 32 32 31 31 31 31 31 31 31 31 32 32 32 32 33 33 33 33 34 33 33 33 33 34 34 34 34 34 35 35 35 35 35 36 36 36 36 35 35 35 35 36 37 38 39 40 41 41 40 39 39 39 40 41 42 42 43 43 43 43 42 43 45 46 46 46 45 45 44 43 42 41 40 39 39 38 36
27 28 29 30 31 31 31 31 31 32 32 32 32 32 32 32 32 32 32 32 33 33 33 33 34 34 34 34 35 35 35 35 35 35 35 35 35 36 36 36 36 36 36 36 37 37 37 37 36 36 35 35 36 37 38 39 40 40 41 41 40 40 39 40 41 42 42 43 42 43 44 44 44 45 45 46 46 46 45 44 44 43 43 41 40 39 39 38
27 28 30 31 32 32 32 31 32 32 32 33 33 33 33 33 33 33 33 34 34 34 35 35 35 35 35 36 37 37 37 36 36 36 36 36 36 36 36 37 37 37 37 37 37 37 38 37 37 36 35 35 36 37 38 39 40 40 40 40 40 41 41 41 41 41 41 42 42 42 44 45 45 45 45 45 45 45 45 44 43 43 43 42 41 39 38 38
28 29 31 32 33 33 32 31 32 32 33 33 33 33 33 34 34 34 34 35 35 35 36 36 37 36 36 37 38 38 38 37 37 37 37 37 37 37 37 37 36 36 36 36 36 36 37 36 36 35 35 34 35 35 36 37 39 39 40 39 40 40 41 41 41 41 41 40 41 42 43 44 44 44 44 44 45 45 45 44 44 43 43 43 42 40 39 38
29 30 32 32 33 34 33 32 33 33 33 34 34 34 34 35 35 35 36 36 36 36 36 38 38 37 37 38 39 39 38 38 37 37 36 36 36 36 36 35 35 35 35 35 34 34 34 34 33 33 33 32 32 32 33 34 36 37 38 38 38 39 40 41 42 41 41 40 40 41 42 43 43 43 44 44 44 44 44 44 44 43 43 43 42 41 41 40
30 31 32 33 33 34 34 34 34 33 34 34 35 35 35 36 36 37 37 37 37 37 37 39 38 37 38 39 39 38 38 38 37 36 35 35 35 34 34 33 33 33 33 32 31 30 30 29 29 29 29 29 28 29 30 31 32 34 35 36 36 37 38 40 42 41 41 41 40 40 41 42 42 43 44 44 43 43 43 43 43 42 43 43 43 42 41 41
31 31 32 33 34 35 36 35 35 34 34 35 36 36 36 37 37 38 38 38 38 38 38 39 38 37 38 38 38 37 37 36 35 34 33 32 32 31 31 31 30 30 29 28 27 26 25 25 25 25 26 25 25 26 28 28 29 31 32 33 33 34 36 38 40 41 42 41 40 40 40 40 41 41 42 42 42 42 42 42 42 43 43 43 44 43 42 42
30 31 32 33 34 35 36 36 36 35 35 36 36 37 38 38 38 39 39 39 38 38 38 38 36 36 37 37 36 35 33 33 32 31 30 29 29 28 28 27 27 26 25 23 22 22 22 22 22 22 23 23 23 24 25 26 26 28 29 29 30 31 34 36 38 41 42 41 40 40 40 40 40 40 40 40 41 41 41 41 42 43 44 44 44 43 42 42
29 30 31 32 33 35 36 37 36 36 35 36 37 38 38 38 38 38 38 38 37 36 36 35 34 35 34 33 32 31 29 28 27 27 26 26 26 25 24 24 22 21 20 19 19 19 19 20 20 21 21 22 22 22 23 24 24 25 26 26 27 29 31 33 36 39 41 40 40 40 40 40 39 39 39 39 40 40 40 41 41 42 43 43 43 42 42 42
24 24 26 27 29 31 32 33 33 32 32 33 34 35 35 35 35 35 34 34 33 32 32 31 31 31 30 29 28 26 24 23 23 23 23 23 23 22 21 20 19 18 17 17 17 18 18 19 19 20 20 20 20 20 21 22 22 22 23 23 24 26 29 32 34 37 38 39 40 40 40 40 39 39 39 39 40 40 41 41 40 41 41 41 41 41 41 42
18 18 20 21 22 24 26 26 26 26 26 27 28 29 29 29 29 29 28 28 27 27 26 26 27 27 26 25 24 22 20 19 19 20 20 20 20 19 18 17 17 16 16 16 17 18 18 18 18 18 18 18 17 17 18 18 18 19 20 20 22 25 27 29 32 35 37 38 39 39 39 39 39 39 39 39 40 41 41 41 40 40 39 39 39 39 40 41
14 15 16 17 18 20 20 20 20 20 21 21 22 23 23 23 23 22 22 21 21 21 21 21 22 23 22 21 20 20 19 18 18 18 19 18 17 17 17 16 16 16 16 16 17 17 16 16 16 16 15 15 14 14 13 13 14 16 18 19 21 23 25 27 30 33 36 37 38 39 39 38 38 38 39 40 40 41 41 41 40 39 38 38 38 38 38 39
10 11 12 13 14 16 17 17 17 17 18 19 19 19 19 19 18 18 17 17 17 16 16 16 17 18 19 18 18 18 17 17 17 17 17 16 16 16 17 16 16 16 16 16 15 15 15 14 13 13 12 12 11 11 11 11 13 15 17 18 20 22 24 25 28 31 34 37 37 38 38 37 37 37 39 41 42 41 41 41 40 39 38 37 37 37 38 38
10 9 9 9 10 12 13 13 14 14 16 16 16 16 17 17 17 16 15 15 14 14 13 13 14 15 16 16 16 16 16 16 16 16 16 16 16 16 16 16 15 15 15 14 14 13 12 12 11 11 10 10 9 10 11 12 13 14 16 17 18 20 21 23 25 28 33 35 35 35 36 37 37 38 39 41 42 41 41 40 39 39 38 37 37 37 37 37
12 11 11 10 9 9 10 10 11 12 14 14 14 14 15 15 15 15 15 15 14 13 13 13 14 14 15 15 16 16 16 16 16 16 17 17 17 16 16 15 15 14 14 13 12 12 11 10 10 10 9 9 10 10 12 12 13 13 15 16 18 20 21 22 23 26 30 33 33 33 35 36 38 39 40 41 41 41 41 40 40 39 38 38 37 37 36 36
13 13 13 12 11 11 10 10 10 10 11 12 13 13 13 13 13 13 14 14 13 13 14 14 15 15 16 16 17 16 17 17 17 17 17 17 16 16 15 15 14 13 13 12 11 11 10 10 10 10 9 10 10 11 12 12 12 13 14 16 18 21 22 22 23 24 27 30 30 30 32 35 38 38 39 40 40 39 40 40 40 40 39 39 38 37 36 35
15 14 14 14 14 13 12 12 11 10 10 11 11 11 12 12 12 12 12 12 11 12 13 14 15 16 17 17 17 17 18 18 18 18 17 16 15 14 14 14 13 13 12 11 11 11 10 10 10 9 9 10 10 10 11 11 11 12 14 17 19 21 23 23 23 24 25 26 27 28 29 33 36 36 37 39 39 39 40 40 40 41 40 39 38 37 36 34
17 16 16 15 15 15 14 13 13 12 11 11 11 10 10 11 12 12 11 10 10 11 12 13 15 16 16 17 17 17 17 18 17 17 16 15 14 13 13 13 13 13 12 11 11 12 11 11 10 9 9 9 9 10 10 10 11 13 15 17 18 20 21 22 23 24 25 24 24 25 28 31 32 32 35 37 37 38 40 40 41 41 41 40 39 37 36 35
17 18 17 17 16 16 16 15 14 14 13 13 12 11 10 10 10 11 10 9 10 11 12 13 14 15 15 16 16 16 16 16 16 15 14 14 13 14 14 14 13 13 12 11 12 12 11 10 9 9 9 9 10 10 10 9 11 13 15 16 17 18 19 18 19 22 24 23 23 24 27 28 27 28 32 35 36 38 39 40 41 41 41 40 39 38 36 35
18 18 18 18 18 17 17 16 16 15 15 14 13 12 11 10 8 8 9 10 11 12 13 15 15 15 15 15 14 14 14 14 14 13 14 14 15 15 15 13 12 12 12 12 12 12 11 10 10 9 9 10 10 10 9 10 12 13 14 15 17 18 18 16 16 18 20 21 22 24 25 25 24 24 28 34 36 38 39 40 40 40 40 40 40 38 37 35
20 19 19 18 18 18 18 18 17 17 17 16 15 13 11 9 8 9 10 12 14 14 16 17 16 16 15 14 13 12 11 12 13 14 14 15 15 15 14 12 11 11 12 12 12 11 10 10 10 10 9 10 10 9 8 10 12 11 13 15 18 20 19 16 15 15 16 18 21 23 24 24 24 23 27 32 34 36 38 39 39 39 39 39 39 38 37 35
22 21 20 19 19 19 19 20 19 19 18 18 16 15 12 10 10 11 12 14 16 17 17 16 16 16 15 14 13 12 11 12 13 15 15 15 15 14 13 11 11 11 12 12 12 11 11 10 10 10 10 10 10 8 8 11 11 11 13 15 17 19 19 17 15 14 13 14 17 20 22 23 23 24 27 31 33 34 36 38 39 38 38 38 38 38 37 34
23 23 22 21 20 20 20 21 21 21 21 20 19 16 13 11 11 13 14 15 16 17 17 16 15 15 14 14 13 12 12 13 14 15 15 15 15 14 12 11 12 12 13 13 12 11 10 10 10 10 11 11 8 7 9 11 11 12 14 15 16 17 19 18 15 14 13 11 12 16 21 23 23 25 28 30 31 32 33 36 38 37 37 37 37 37 36 34
24 24 24 23 22 21 21 22 23 24 23 22 21 19 15 13 12 14 15 16 16 16 16 15 14 14 13 13 12 12 13 13 14 14 14 15 14 12 11 12 13 13 13 13 12 10 10 11 11 11 11 9 7 7 9 10 12 13 14 15 16 17 18 18 15 13 13 10 10 14 19 20 22 25 27 28 28 29 31 34 36 36 36 35 35 35 35 34
25 25 25 25 24 23 23 23 24 25 25 25 24 22 18 15 14 14 17 17 15 14 14 12 12 11 11 11 11 11 12 13 13 14 13 13 12 11 12 13 13 13 13 12 10 10 10 12 12 12 11 8 7 7 8 9 12 13 14 15 16 17 17 17 16 14 13 10 9 12 15 17 20 23 24 26 27 28 30 32 33 34 34 33 34 34 34 34
24 25 26 27 27 26 26 26 25 25 26 26 26 24 22 19 16 14 16 18 17 14 13 11 10 10 10 10 11 11 12 12 12 12 12 11 10 11 13 13 12 12 11 11 11 11 12 13 14 13 11 8 7 8 8 9 11 12 13 14 15 17 17 17 16 14 13 11 9 10 13 15 18 21 21 22 25 27 28 30 31 31 32 32 32 33 33 34
25 26 28 29 29 30 30 29 27 26 27 27 27 27 25 23 20 18 16 18 19 17 14 12 11 10 10 10 10 10 10 11 11 11 11 11 11 12 13 12 11 11 11 12 12 12 13 14 14 13 11 8 8 8 8 9 9 10 11 12 13 15 17 18 17 14 13 12 9 10 12 14 16 18 17 16 21 26 27 28 29 29 30 31 31 32 33 34
27 28 30 31 32 32 32 31 29 28 28 28 28 28 27 26 24 22 19 18 19 20 18 14 12 12 11 10 10 9 9 9 10 11 11 12 12 13 12 11 11 12 13 13 12 13 14 13 13 13 11 10 9 8 8 9 9 9 10 12 13 15 16 17 18 15 12 11 10 10 11 12 13 15 15 16 20 25 26 27 28 29 29 30 31 32 34 35
30 30 31 31 31 31 31 30 29 28 29 30 30 29 29 28 27 25 23 20 18 20 21 18 15 14 13 12 11 11 10 10 10 11 12 12 12 13 12 12 12 13 14 13 13 13 13 13 14 14 12 11 9 7 8 9 9 9 11 13 14 16 17 16 17 17 13 11 10 10 10 10 13 15 17 19 21 23 25 26 27 28 29 30 31 33 34 35
31 31 31 31 30 29 28 28 28 27 28 30 32 33 31 30 29 28 26 24 22 21 22 22 19 17 16 15 15 14 13 12 12 13 13 13 13 14 14 13 13 14 15 13 12 13 13 13 15 15 14 12 9 8 9 9 7 7 9 11 13 15 17 18 18 18 15 11 9 10 9 9 13 16 18 19 20 22 23 25 25 27 28 30 31 33 35 36
31 31 31 31 30 28 27 27 26 26 27 29 31 33 33 33 31 30 28 27 26 25 23 23 23 21 19 18 18 17 16 15 15 15 16 15 15 16 16 15 15 16 16 15 13 13 14 15 16 17 16 13 10 9 10 10 8 6 7 9 10 12 15 17 17 17 15 11 9 10 8 8 12 15 17 19 19 20 22 23 24 25 27 29 31 33 35 37
30 30 30 30 30 29 27 26 26 26 27 28 28 29 30 31 31 31 30 29 29 28 26 25 24 24 23 22 21 20 19 19 18 18 19 18 18 18 18 18 18 17 17 16 15 15 16 16 17 19 18 16 13 11 11 11 10 8 7 7 9 11 13 15 15 15 14 11 8 9 8 7 11 13 15 17 18 19 21 22 23 25 26 28 30 33 35 37
30 31 30 29 29 29 28 27 26 26 26 27 28 29 29 29 30 31 31 30 30 30 29 28 27 26 26 26 25 23 22 21 21 21 21 21 20 21 21 21 20 19 18 18 16 16 17 17 19 20 19 18 16 13 12 12 11 10 8 7 7 9 11 13 14 13 13 12 8 6 6 7 12 13 13 16 17 18 20 21 23 25 25 27 31 34 35 37
31 31 31 29 29 29 29 28 27 26 27 27 28 28 29 30 30 31 31 31 31 31 31 31 30 29 29 29 28 27 26 25 24 23 23 23 23 23 23 23 22 21 20 20 19 18 18 18 19 20 20 19 17 14 13 13 13 11 9 8 7 7 9 11 12 13 13 12 9 6 5 7 10 12 13 15 16 19 20 20 22 24 25 28 31 33 35 36
31 32 31 30 29 28 28 28 27 26 26 27 28 28 28 29 30 32 32 33 32 32 32 32 32 32 32 31 31 30 29 29 28 26 26 25 25 25 25 25 24 24 23 22 22 21 20 19 19 19 19 19 17 15 14 14 14 14 12 10 8 6 7 9 10 12 12 12 11 8 4 6 9 12 14 15 17 19 20 20 22 23 25 28 30 32 34 35
31 32 32 30 29 28 27 27 26 26 26 27 28 28 28 28 29 30 31 32 33 33 33 33 33 33 34 34 34 32 31 31 30 30 29 28 27 27 26 26 26 25 25 24 24 23 22 21 19 19 18 18 17 16 14 14 14 15 14 13 11 8 6 7 8 10 11 12 12 10 6 5 9 12 13 15 17 19 19 20 21 22 24 26 28 30 32 34
31 32 32 31 29 28 27 26 26 26 25 26 27 28 28 28 29 30 31 32 32 33 33 34 34 35 35 36 35 35 34 34 33 32 32 32 31 29 27 26 26 26 26 25 24 24 24 23 21 19 18 17 18 17 15 14 15 16 16 15 13 11 8 6 7 8 10 11 12 12 9 5 6 10 13 15 17 18 19 19 19 21 22 24 26 28 31 33
32 32 32 31 30 28 27 26 25 25 25 25 26 26 26 26 27 29 31 32 33 33 34 34 35 36 36 37 37 37 37 37 36 35 35 35 34 33 31 28 27 27 28 27 25 24 24 24 23 21 18 18 19 18 17 16 15 16 18 17 15 13 11 8 7 6 7 9 11 11 11 9 5 6 11 14 16 17 18 18 18 19 21 23 25 27 30 32
32 32 32 31 30 28 27 26 25 25 25 25 25 26 25 25 26 26 28 29 31 33 34 35 36 36 37 37 38 38 39 39 39 38 38 38 37 36 35 33 31 30 30 29 28 25 24 25 25 22 20 20 20 19 18 17 16 17 19 19 17 15 13 11 9 6 6 7 9 10 11 10 8 5 6 10 14 16 17 18 19 19 20 22 24 26 29 31
33 33 32 31 30 28 28 27 26 25 25 25 25 25 25 25 25 25 26 27 28 29 31 33 34 35 36 37 38 39 40 40 41 40 41 41 40 39 38 36 34 33 32 31 31 29 27 26 26 25 23 23 22 20 19 18 17 19 21 21 18 18 16 14 12 9 6 6 8 9 10 10 9 8 6 6 9 13 16 17 18 20 21 22 23 25 27 29
Wind_Direction
246 247 248 249 251 252 254 255 256 257 258 259 260 260 261 261 261 261 261 261 261 262 262 262 262 262 262 262 262 262 261 261 261 261 261 260 259 259 259 259 259 258 258 257 256 255 254 252 249 247 244 241 239 238 236 234 232 231 230 230 230 230 228 227 227 227 227 227 229 231 231 230 231 234 235 236 239 243 247 249 249 249 251 252 253 252 248 250
247 247 248 249 250 251 252 254 254 255 256 257 258 259 260 261 261 261 262 262 262 262 263 263 263 263 262 262 262 262 262 262 262 262 262 261 261 260 259 259 259 258 257 256 256 255 254 252 251 249 246 244 241 239 238 236 234 233 231 231 230 231 230 229 228 228 228 229 230 231 231 231 231 234 236 237 238 241 245 247 247 247 248 248 250 250 249 252
249 250 250 250 250 251 252 253 254 255 255 255 256 257 259 260 260 261 261 262 262 262 262 263 263 263 263 263 264 264 264 264 264 264 263 263 262 261 260 259 259 258 257 256 255 254 254 253 251 250 248 246 244 241 240 238 237 235 233 232 231 231 231 230 229 229 229 229 231 232 232 233 233 234 236 237 236 238 241 244 245 246 246 246 247 249 250 256
252 253 253 253 253 253 253 254 254 255 255 255 255 256 257 259 260 260 261 261 262 262 262 263 263 264 265 265 266 266 267 267 266 265 265 265 264 263 262 261 260 259 258 256 255 254 253 252 252 250 249 247 245 244 242 240 239 238 236 234 233 232 232 232 231 230 230 230 231 232 233 234 234 234 235 236 236 236 239 242 244 245 245 245 246 247 252 257
253 254 255 255 256 256 256 256 256 256 256 256 256 256 257 258 259 260 261 262 263 263 263 264 265 265 266 267 268 269 269 269 269 267 267 266 266 265 264 263 261 260 259 257 256 254 253 252 251 251 250 248 246 245 243 242 241 239 238 237 235 234 233 233 233 231 231 231 231 232 233 235 236 235 235 236 236 235 236 239 242 243 243 243 244 247 251 255
254 254 255 256 257 257 258 258 258 258 258 258 258 258 258 258 259 260 261 263 264 264 264 265 265 266 267 267 268 269 269 270 269 269 268 267 267 267 266 265 264 262 261 259 257 256 254 253 252 251 250 249 248 246 244 243 242 241 240 239 238 236 235 234 234 233 232 231 232 232 233 235 236 237 236 236 236 234 235 237 239 241 242 242 243 246 250 254
255 256 256 256 257 258 258 259 259 260 260 260 260 259 259 260 260 261 261 263 264 264 265 265 266 266 267 267 267 268 268 269 269 269 268 268 268 268 268 267 266 265 263 261 259 257 256 254 253 252 251 251 249 248 246 245 243 242 241 240 240 239 237 236 235 235 234 233 232 232 233 234 236 237 237 237 236 234 235 236 237 239 240 242 244 247 249 253
255 257 257 257 257 258 258 259 260 260 260 261 261 261 261 261 262 262 262 263 264 265 265 266 266 266 267 267 267 268 268 268 268 269 269 269 269 269 269 268 268 267 265 264 262 260 258 256 254 253 252 252 250 249 248 247 245 244 243 242 241 240 239 238 237 236 236 235 234 233 233 233 235 237 238 238 237 236 236 236 237 237 239 242 244 247 248 250
255 256 257 258 258 258 259 259 259 260 260 261 261 261 262 262 263 264 264 265 265 266 266 267 267 267 268 268 268 269 269 269 269 269 270 269 269 269 269 269 268 268 267 266 264 262 260 258 256 254 253 253 252 251 249 248 247 246 245 244 243 242 241 240 239 238 237 236 235 234 234 234 234 235 237 240 240 239 238 238 238 238 239 241 242 245 246 247
255 256 256 257 257 258 259 259 259 260 260 261 261 261 262 262 263 264 266 266 267 268 268 268 269 269 269 269 269 269 269 270 270 270 270 271 270 270 269 269 268 268 268 267 266 265 263 261 259 257 255 254 253 252 250 249 247 246 245 245 245 244 243 241 240 239 238 238 237 236 235 234 234 235 235 238 240 240 241 241 240 239 238 239 241 243 243 244
255 256 256 257 257 257 258 259 259 260 260 260 261 261 262 262 263 265 266 267 268 268 269 270 270 270 270 270 270 270 270 270 270 270 270 270 270 270 269 269 268 268 268 267 267 266 265 264 262 260 258 257 256 254 252 250 248 246 245 244 245 245 245 244 242 241 240 239 238 237 237 236 235 235 234 235 238 239 240 242 242 240 239 239 240 241 242 242
256 257 257 258 258 257 257 257 258 260 260 261 261 261 262 263 264 264 266 267 267 268 269 270 270 271 271 271 271 270 270 270 269 269 269 269 269 269 269 269 269 268 268 268 268 267 266 265 264 262 261 260 258 257 255 252 250 247 245 244 243 244 244 245 244 242 241 239 239 238 238 238 237 235 235 235 236 237 238 240 242 242 241 239 238 239 241 241
257 258 259 259 259 259 258 258 258 259 260 261 262 263 263 263 264 265 266 267 267 268 269 270 270 271 271 271 271 270 270 270 270 270 270 270 269 270 270 270 270 270 270 270 270 269 268 267 265 264 263 262 260 259 257 255 252 249 246 244 243 242 242 243 243 243 242 241 240 239 238 238 238 237 236 236 236 236 237 238 240 241 242 241 239 238 239 240
258 259 260 261 260 260 259 259 259 260 260 261 262 263 264 264 265 265 266 267 268 268 269 270 270 271 271 272 271 271 271 271 271 271 270 271 271 271 271 271 271 272 272 272 272 272 271 270 268 267 265 263 262 260 259 257 255 252 249 245 243 242 241 240 241 241 242 242 242 241 239 238 238 238 237 237 237 237 237 237 238 239 240 241 241 239 238 238
258 259 260 261 261 260 260 260 260 261 261 262 262 263 264 264 264 265 266 266 267 268 269 270 271 271 273 273 272 272 272 272 272 271 271 271 271 271 271 272 272 272 272 272 272 272 272 272 271 270 267 265 263 261 260 258 257 255 252 248 245 243 242 241 240 240 240 241 241 242 242 241 240 240 238 237 238 238 238 238 238 239 239 240 240 240 239 238
259 259 260 261 262 262 261 261 261 261 262 262 263 263 264 265 265 265 265 266 267 268 269 270 271 272 273 273 272 272 272 272 272 272 271 271 271 271 272 272 273 273 273 272 272 273 273 273 272 271 268 265 263 261 260 259 257 256 253 250 247 244 243 242 241 240 239 239 240 240 242 242 242 243 241 238 238 239 239 239 239 239 240 240 239 240 240 239
259 259 260 261 262 263 262 261 260 261 262 263 264 264 264 265 266 266 266 267 268 269 270 271 272 273 273 272 272 272 272 272 271 271 271 271 271 271 272 273 273 274 274 273 273 274 273 273 272 270 268 265 263 262 261 259 257 256 254 251 249 246 243 243 242 241 240 239 239 239 240 241 241 242 242 241 239 239 239 239 239 239 240 240 239 239 239 239
259 259 260 261 262 263 263 262 262 262 262 263 264 265 265 266 267 268 268 269 269 270 271 272 273 274 273 272 272 272 272 271 271 270 270 270 270 271 272 273 274 274 274 274 274 273 273 271 270 269 268 266 264 262 260 259 258 257 255 252 250 248 245 243 242 241 240 239 239 239 240 240 241 242 243 242 241 240 239 239 239 239 240 241 240 239 238 238
261 261 261 262 263 264 264 264 264 264 264 264 265 266 267 267 268 269 270 270 271 272 272 273 275 274 273 273 273 272 272 271 270 269 267 267 268 270 272 273 274 274 274 274 273 271 270 268 268 268 268 266 264 261 260 259 258 257 256 254 252 250 248 245 243 241 240 238 238 239 240 240 241 242 242 243 242 241 240 239 239 239 239 240 240 239 238 239
262 262 263 263 264 264 265 265 265 265 265 266 266 267 267 268 269 269 270 271 272 273 273 275 275 274 274 274 273 272 271 270 268 266 265 265 266 268 271 272 273 273 273 272 270 268 266 266 265 265 265 264 262 262 262 261 259 258 257 255 253 251 249 247 244 243 240 238 238 238 239 240 240 242 243 243 243 243 241 240 239 239 239 240 239 239 238 238
264 265 265 265 265 265 265 266 267 267 267 267 268 268 268 269 269 270 271 272 272 273 274 275 274 273 273 273 272 271 269 268 265 263 263 263 265 268 269 270 270 270 270 269 268 265 263 262 262 261 261 262 261 261 261 260 258 258 257 255 253 251 250 249 246 244 242 239 238 238 238 239 239 241 242 243 244 243 242 241 239 239 239 239 239 239 238 238
268 268 268 267 267 267 267 268 269 269 269 268 268 268 268 269 270 270 271 272 273 273 273 273 272 272 272 271 270 269 267 264 262 261 261 263 265 266 266 266 267 268 267 267 265 262 260 260 259 259 259 260 260 258 257 257 256 256 255 254 252 250 249 249 248 246 244 241 239 238 238 239 239 239 240 241 242 243 242 241 240 239 238 238 238 238 237 237
272 272 271 271 270 270 271 272 272 271 270 268 268 268 268 269 269 270 271 271 272 272 271 270 270 269 269 268 267 265 262 259 257 257 259 261 263 263 264 265 265 265 264 262 260 259 258 258 257 257 257 256 255 253 253 254 255 256 254 252 249 247 246 246 248 248 245 242 240 239 238 238 239 239 239 240 240 241 241 241 240 239 239 238 237 236 236 236
281 278 276 274 274 274 275 276 275 274 272 270 269 269 269 269 269 270 270 270 271 271 270 268 267 266 264 264 262 260 257 255 255 255 256 258 259 261 263 264 263 262 260 259 257 256 255 255 254 253 252 251 250 249 250 254 257 257 254 248 245 244 243 243 246 247 247 244 241 239 238 237 238 240 240 240 239 239 240 240 240 240 239 239 238 237 236 235
299 293 288 282 279 279 279 278 277 276 273 271 270 270 270 270 269 269 269 269 269 269 268 265 263 262 261 260 260 258 256 255 254 253 254 255 257 260 262 261 260 259 257 255 253 252 251 249 248 247 246 244 244 247 250 253 256 257 256 251 247 245 244 242 243 247 248 246 243 241 239 238 238 238 239 240 240 239 239 240 240 240 239 238 238 237 236 235
308 307 304 299 294 290 287 284 281 277 275 273 273 272 271 270 270 269 269 268 267 267 265 262 260 260 259 258 259 258 258 256 254 254 256 258 260 261 262 261 258 256 253 251 249 247 244 242 242 241 238 236 240 250 254 253 255 260 263 262 260 256 251 246 243 244 247 247 244 242 241 239 237 236 237 239 240 240 240 240 240 240 239 238 237 237 236 234
302 303 303 303 304 304 303 300 293 285 280 277 276 274 273 272 271 271 269 267 266 265 263 260 259 258 257 257 258 259 259 258 258 259 261 263 264 263 262 260 257 253 250 246 244 242 238 236 236 230 229 234 240 250 256 256 258 265 271 275 275 270 263 256 248 245 246 247 245 242 241 240 238 237 237 238 239 240 241 241 241 240 240 239 237 237 236 234
296 297 296 297 298 300 303 305 305 302 295 288 282 277 275 274 273 272 270 268 266 264 263 261 260 259 257 256 257 258 259 261 262 263 263 264 265 263 260 257 253 250 246 239 236 237 233 229 227 222 226 237 242 249 255 258 263 272 279 283 283 280 275 268 260 253 249 248 245 242 240 239 238 237 238 240 240 240 241 241 242 241 240 239 238 238 236 235
290 291 292 294 294 294 296 299 304 309 308 302 294 285 277 272 271 271 269 269 268 264 262 260 258 257 256 255 256 256 258 260 262 263 264 264 263 261 255 251 247 244 239 230 227 231 226 219 220 222 230 240 248 254 258 263 273 281 286 288 287 286 282 277 272 265 257 251 246 243 240 240 239 237 238 240 239 240 240 241 241 240 239 238 238 237 237 235
286 286 286 289 291 292 293 294 298 301 302 303 304 301 291 279 272 268 266 266 267 264 260 258 256 256 255 254 255 256 256 258 259 261 262 261 258 252 244 240 235 231 227 221 218 220 215 212 218 226 235 245 254 259 263 272 283 288 290 292 292 290 286 281 275 269 263 256 249 245 241 240 240 237 237 238 237 237 238 239 239 239 239 238 237 236 236 235
283 283 283 282 284 287 290 292 294 293 294 296 302 307 306 297 284 272 265 263 263 259 256 255 255 255 255 255 255 255 256 256 256 255 253 249 243 235 231 229 224 218 217 213 207 207 207 211 220 229 239 247 253 260 269 280 285 288 293 298 302 301 294 284 275 268 265 261 254 248 244 241 240 239 239 238 236 235 235 236 237 238 238 238 237 236 235 234
280 282 282 281 279 280 283 287 289 289 289 290 294 300 304 309 305 282 261 255 255 251 250 251 252 253 254 254 254 254 253 253 250 244 240 235 231 227 225 223 217 212 211 206 200 200 206 216 225 231 238 244 252 260 272 281 284 291 301 312 319 316 307 296 282 271 264 259 254 249 247 243 239 238 239 237 235 234 234 234 235 235 235 236 236 235 234 232
275 278 280 282 281 279 277 278 281 284 285 285 287 289 295 306 304 280 254 244 242 241 244 249 250 251 253 254 254 253 249 243 238 233 231 229 226 225 223 219 215 211 206 201 200 203 211 221 228 230 237 245 252 261 274 281 286 301 319 328 327 322 318 309 294 281 269 257 249 246 246 242 235 235 239 237 236 236 234 234 233 232 232 233 233 234 233 230
270 273 276 280 282 282 279 275 274 275 277 281 282 281 286 293 288 278 264 252 247 247 252 258 259 256 255 254 254 250 241 232 229 228 227 226 225 225 223 220 216 210 204 202 205 209 215 225 230 232 237 244 250 262 277 284 296 322 337 335 328 325 325 319 305 294 279 260 250 246 244 239 232 234 237 234 234 236 235 234 232 231 230 230 230 231 231 229
267 268 271 275 278 280 280 276 273 271 270 272 275 277 279 281 278 277 273 265 259 259 266 274 277 272 266 260 254 248 238 228 226 227 226 225 226 225 221 217 211 205 204 207 210 212 218 228 235 236 237 240 247 267 282 292 315 339 343 334 328 329 330 326 318 305 289 268 252 244 241 236 230 232 236 233 232 233 233 232 232 230 229 228 227 228 228 226
266 267 268 271 274 276 277 274 270 268 267 266 268 270 272 273 272 273 273 271 268 268 273 279 282 280 276 269 260 250 241 232 228 228 228 227 224 220 215 209 204 203 206 210 213 217 226 235 238 239 240 242 253 272 285 305 327 342 342 334 332 334 334 332 326 313 300 285 255 241 238 233 228 229 234 235 232 231 230 230 230 229 228 226 224 224 225 223
266 268 269 270 272 274 274 272 268 264 263 263 264 264 265 265 268 270 273 274 274 274 275 275 274 272 270 266 259 250 243 236 232 231 229 225 218 213 210 206 202 205 208 211 216 223 231 239 241 240 242 247 259 274 289 314 332 339 341 338 336 338 340 340 336 324 313 298 264 245 238 231 226 226 231 234 232 228 227 227 227 228 227 225 223 221 221 220
268 269 270 271 272 274 274 273 270 263 258 257 259 260 261 260 261 263 270 275 276 273 269 267 262 257 253 250 246 241 237 233 230 230 227 219 212 211 211 207 205 211 214 216 220 222 226 233 236 237 241 250 262 277 295 317 330 336 339 342 341 342 345 347 343 333 323 310 279 253 238 228 224 223 227 232 230 226 225 224 223 225 225 224 222 219 217 217
272 272 273 273 274 274 274 273 270 263 256 253 254 256 257 258 257 256 259 269 274 272 266 263 259 252 245 243 240 235 229 225 223 225 223 217 214 214 215 213 216 222 225 224 225 223 223 227 232 235 242 253 264 280 297 310 322 332 339 344 347 348 350 351 350 343 331 319 297 264 242 227 220 220 223 228 227 224 222 220 219 220 222 221 219 217 215 214
275 276 277 277 276 275 273 270 267 261 254 250 250 252 253 254 254 253 252 257 268 273 270 263 258 254 248 242 238 232 224 217 216 217 217 217 219 221 223 225 228 232 233 230 228 227 226 230 236 238 242 251 259 276 293 303 315 331 341 347 353 356 356 355 354 351 339 324 307 282 257 233 218 218 221 221 221 221 220 217 215 215 216 217 216 215 213 211
279 280 281 281 278 275 271 268 265 259 252 246 245 247 249 251 251 252 250 250 255 265 269 265 258 255 252 247 241 233 225 220 219 220 220 220 224 230 233 234 234 237 237 233 231 232 232 237 243 244 243 247 252 264 278 290 308 328 339 347 355 357 357 360 0 356 348 332 312 292 269 240 221 218 218 216 216 218 218 216 215 213 213 214 213 212 211 209
282 284 286 285 281 276 271 266 263 259 252 245 242 242 244 247 250 251 250 247 246 251 260 265 261 254 250 250 248 241 234 228 227 230 231 230 232 237 239 238 237 240 243 241 238 239 238 242 248 253 252 250 251 259 266 273 291 318 334 343 354 358 357 0 3 0 354 341 311 289 271 241 228 221 214 213 214 216 217 216 216 214 213 213 212 211 210 207
280 285 288 287 283 277 271 265 261 258 253 248 244 242 243 245 249 250 249 247 245 245 249 257 262 259 252 249 248 247 243 238 234 234 236 237 238 241 242 241 240 242 246 248 246 245 244 245 251 257 259 258 256 257 262 269 282 302 325 338 352 1 0 0 2 1 359 351 315 291 278 246 234 225 214 212 212 212 215 214 214 214 215 216 214 210 208 206
278 283 286 285 282 278 273 266 261 257 253 249 246 243 243 244 246 248 248 246 246 245 244 247 254 258 258 253 248 246 247 245 242 240 238 238 238 240 243 244 244 244 247 249 249 249 249 249 252 257 261 262 260 258 260 266 276 290 309 329 348 2 4 3 2 2 2 0 330 297 288 260 245 235 220 216 214 213 214 212 210 210 213 218 218 212 208 205
277 282 285 283 279 276 273 269 262 256 252 250 247 243 241 241 242 244 245 244 244 244 244 244 245 249 255 257 254 250 247 246 245 245 244 241 239 239 241 244 246 248 250 253 252 250 249 248 250 255 259 261 262 261 261 264 270 281 295 313 339 359 5 4 4 4 3 4 350 307 277 251 248 243 230 223 220 217 216 213 210 208 209 215 219 215 209 204
275 280 283 282 278 273 272 270 265 259 253 250 248 245 242 240 240 242 244 243 243 242 243 243 243 244 246 251 254 254 252 249 246 246 247 247 246 244 242 243 247 249 252 255 255 252 248 245 245 250 255 259 262 263 264 267 271 276 284 298 320 352 5 1 3 6 4 4 1 332 271 241 243 243 234 229 227 222 219 216 213 209 209 215 218 216 210 205
274 278 282 282 277 272 270 269 266 262 256 251 249 247 244 242 241 243 245 245 244 243 242 243 245 245 244 245 248 250 253 253 252 249 248 248 249 249 248 247 248 251 252 255 258 257 253 247 244 245 250 255 259 262 266 270 273 276 281 289 302 329 356 357 1 7 4 1 3 353 301 242 235 236 232 230 230 227 222 219 217 213 212 216 219 217 213 207
272 276 282 282 277 272 269 268 266 263 259 254 251 248 246 243 243 243 245 246 246 246 245 245 245 246 246 246 246 246 248 251 253 253 252 250 249 250 251 251 252 252 252 254 257 260 260 255 249 245 246 251 255 257 260 265 270 274 277 280 287 300 327 345 355 5 4 0 1 359 340 264 236 233 230 229 230 229 225 222 220 218 217 218 220 219 216 211
273 274 280 281 277 270 268 267 265 263 260 257 254 251 248 246 244 244 245 246 247 247 246 246 246 246 246 247 248 248 248 248 249 251 253 253 251 250 250 252 255 256 255 254 255 259 262 261 257 252 247 247 250 250 250 254 261 267 269 272 277 284 296 317 339 358 3 360 358 357 354 331 261 239 233 231 230 229 228 225 223 221 219 220 222 221 218 214
273 272 277 280 277 269 266 265 264 262 260 258 256 254 252 249 247 247 248 248 248 249 248 247 247 246 246 247 248 248 250 250 249 249 250 251 251 251 250 249 251 254 257 257 255 257 261 263 262 258 253 249 247 245 242 244 251 260 264 266 270 275 281 291 312 340 355 355 353 353 356 355 330 263 245 239 235 232 230 227 226 223 221 221 222 222 220 216
274 271 275 278 276 269 264 263 262 261 259 256 255 254 254 253 251 250 250 251 251 251 250 249 249 248 248 248 248 248 249 250 250 250 250 249 250 250 250 248 247 249 254 257 257 256 257 261 263 261 260 256 250 242 237 236 241 252 258 260 263 267 271 277 285 304 331 339 343 350 356 357 354 330 281 256 246 240 234 228 225 223 222 221 222 223 222 219
274 270 273 277 274 267 263 262 261 259 257 256 254 253 253 253 252 252 252 253 252 252 252 252 252 251 250 250 249 249 249 249 250 250 250 250 250 250 250 249 247 247 248 252 256 257 255 257 260 261 261 259 254 245 238 234 235 242 250 255 258 261 264 268 272 279 297 314 323 341 355 355 351 349 333 291 261 249 242 236 229 225 223 222 222 223 224 222
Height
10917 10917 10918 10919 10919 10920 10920 10921 10921 10922 10923 10923 10924 10924 10925 10925 10925 10925 10926 10926 10926 10927 10927 10928 10928 10928 10929 10929 10929 10930 10930 10931 10931 10931 10932 10932 10933 10934 10934 10935 10936 10937 10938 10938 10939 10940 10941 10941 10942 10943 10945 10946 10947 10949 10950 10952 10953 10954 10956 10957 10958 10960 10962 10964 10966 10968 10970 10972 10973 10974 10975 10977 10978 10978 10979 10981 10983 10984 10986 10987 10988 10989 10989 10990 10991 10991 10991 10991
10914 10914 10915 10916 10917 10917 10918 10918 10919 10919 10920 10921 10921 10922 10922 10922 10922 10923 10923 10923 10924 10924 10924 10925 10925 10925 10926 10926 10926 10927 10927 10928 10928 10928 10929 10929 10930 10931 10931 10932 10933 10933 10934 10935 10936 10937 10937 10938 10939 10940 10941 10942 10944 10945 10947 10948 10949 10951 10952 10954 10955 10956 10958 10960 10962 10964 10966 10969 10969 10970 10971 10973 10974 10975 10976 10979 10981 10983 10984 10985 10985 10986 10987 10988 10988 10989 10990 10990
10911 10912 10912 10913 10914 10914 10915 10915 10916 10916 10917 10918 10919 10919 10919 10919 10920 10920 10920 10920 10921 10921 10922 10922 10922 10923 10923 10923 10924 10924 10924 10925 10925 10925 10926 10926 10927 10927 10928 10929 10929 10930 10931 10932 10933 10933 10934 10935 10936 10937 10938 10939 10940 10942 10943 10944 10946 10947 10949 10950 10951 10953 10954 10956 10958 10960 10962 10964 10965 10966 10968 10969 10970 10972 10974 10976 10978 10981 10982 10983 10983 10984 10985 10986 10986 10987 10988 10988
10908 10909 10909 10910 10911 10911 10912 10912 10913 10913 10914 10915 10916 10916 10917 10917 10917 10917 10918 10918 10918 10918 10919 10919 10920 10920 10920 10921 10921 10921 10922 10922 10922 10923 10923 10923 10923 10924 10925 10926 10926 10927 10927 10928 10929 10930 10931 10932 10932 10933 10934 10936 10937 10938 10939 10941 10942 10943 10945 10946 10948 10949 10950 10952 10954 10956 10957 10959 10961 10963 10964 10965 10967 10969 10971 10973 10976 10979 10981 10981 10981 10982 10982 10983 10984 10985 10986 10986
10905 10906 10907 10907 10908 10908 10909 10909 10910 10910 10911 10912 10913 10913 10914 10914 10914 10914 10915 10915 10915 10915 10916 10916 10917 10917 10917 10918 10918 10919 10919 10919 10919 10920 10920 10920 10921 10921 10922 10923 10923 10923 10924 10924 10925 10926 10927 10928 10929 10930 10931 10932 10933 10935 10936 10937 10938 10939 10940 10942 10944 10945 10947 10948 10949 10951 10953 10955 10957 10959 10961 10962 10963 10966 10968 10970 10973 10976 10978 10978 10979 10979 10980 10981 10982 10982 10983 10984
10903 10903 10904 10904 10905 10905 10906 10906 10907 10907 10908 10909 10910 10910 10911 10911 10911 10911 10912 10912 10912 10912 10913 10914 10914 10914 10915 10915 10916 10916 10916 10916 10917 10917 10917 10918 10918 10918 10919 10919 10920 10920 10920 10921 10921 10922 10923 10924 10925 10926 10927 10928 10929 10931 10932 10933 10934 10935 10937 10938 10939 10941 10943 10944 10945 10947 10949 10951 10953 10955 10957 10958 10959 10962 10964 10967 10969 10972 10973 10973 10975 10975 10977 10978 10979 10980 10981 10982
10900 10900 10901 10901 10902 10902 10903 10903 10904 10904 10905 10906 10907 10907 10908 10908 10908 10909 10909 10909 10909 10909 10910 10911 10911 10912 10912 10913 10913 10913 10914 10914 10914 10914 10915 10915 10915 10915 10916 10916 10916 10916 10917 10917 10917 10918 10919 10920 10921 10922 10923 10924 10925 10927 10928 10929 10930 10931 10933 10934 10935 10936 10938 10940 10941 10943 10945 10947 10949 10951 10953 10954 10955 10957 10960 10962 10965 10968 10969 10969 10971 10972 10973 10975 10976 10977 10978 10979
10897 10897 10898 10899 10899 10899 10900 10900 10901 10901 10902 10903 10904 10904 10905 10905 10906 10906 10906 10906 10906 10907 10907 10908 10908 10909 10909 10910 10910 10910 10911 10911 10911 10911 10912 10912 10912 10912 10913 10913 10913 10913 10913 10914 10914 10914 10915 10916 10917 10918 10919 10920 10921 10922 10923 10925 10926 10927 10929 10930 10931 10932 10934 10935 10937 10939 10941 10943 10945 10947 10948 10950 10952 10954 10956 10958 10960 10963 10964 10965 10967 10969 10971 10972 10973 10975 10976 10977
10894 10894 10895 10896 10896 10896 10897 10897 10898 10898 10899 10900 10901 10901 10902 10902 10903 10903 10903 10903 10904 10904 10904 10905 10905 10906 10906 10907 10907 10907 10907 10908 10908 10908 10908 10909 10909 10909 10910 10910 10910 10909 10909 10910 10910 10910 10911 10912 10913 10914 10915 10916 10917 10918 10919 10920 10922 10923 10924 10925 10927 10928 10929 10931 10932 10934 10936 10938 10940 10942 10944 10946 10948 10950 10952 10953 10955 10958 10960 10962 10964 10966 10968 10969 10971 10972 10973 10974
10891 10891 10892 10892 10893 10893 10894 10894 10894 10895 10896 10896 10897 10898 10899 10899 10900 10900 10900 10900 10901 10901 10901 10901 10902 10902 10903 10903 10904 10904 10904 10905 10905 10905 10905 10905 10906 10906 10906 10906 10906 10906 10906 10906 10906 10906 10907 10908 10909 10910 10911 10912 10913 10913 10914 10916 10917 10919 10920 10921 10922 10923 10925 10926 10928 10930 10931 10933 10935 10937 10939 10941 10944 10946 10948 10949 10950 10953 10956 10958 10960 10963 10965 10966 10967 10968 10970 10971
10888 10888 10888 10889 10889 10890 10890 10891 10891 10891 10892 10893 10894 10895 10895 10896 10897 10897 10897 10897 10898 10898 10898 10898 10898 10899 10899 10899 10900 10900 10900 10901 10901 10901 10901 10901 10902 10902 10902 10902 10902 10902 10902 10902 10902 10902 10903 10904 10905 10906 10907 10908 10908 10908 10909 10911 10912 10914 10916 10917 10918 10919 10920 10921 10923 10925 10926 10928 10930 10932 10934 10937 10939 10941 10943 10944 10945 10948 10951 10953 10955 10958 10960 10962 10964 10965 10966 10968
10885 10885 10885 10885 10886 10886 10887 10887 10887 10888 10888 10889 10890 10891 10892 10893 10893 10894 10894 10894 10894 10894 10895 10895 10895 10895 10895 10896 10896 10896 10897 10897 10897 10897 10897 10897 10897 10898 10898 10898 10898 10898 10898 10898 10898 10898 10899 10899 10900 10902 10903 10904 10904 10903 10904 10905 10907 10909 10911 10913 10914 10915 10916 10917 10918 10919 10921 10923 10925 10927 10930 10932 10934 10936 10937 10939 10941 10944 10946 10949 10951 10953 10956 10958 10960 10961 10963 10964
10881 10882 10882 10882 10882 10882 10883 10884 10884 10884 10885 10885 10886 10887 10888 10889 10890 10890 10890 10890 10890 10891 10891 10891 10891 10891 10892 10892 10892 10892 10892 10893 10893 10894 10893 10893 10894 10894 10894 10894 10894 10894 10894 10894 10894 10894 10894 10895 10896 10897 10898 10899 10899 10898 10899 10900 10901 10903 10906 10908 10910 10911 10912 10913 10913 10914 10916 10918 10920 10922 10925 10926 10928 10930 10932 10934 10936 10939 10941 10944 10946 10948 10951 10953 10956 10958 10959 10961
10878 10879 10878 10878 10878 10878 10879 10880 10880 10880 10881 10882 10883 10884 10884 10885 10886 10886 10886 10886 10887 10887 10887 10887 10887 10887 10888 10888 10887 10888 10888 10889 10889 10889 10889 10890 10890 10890 10890 10889 10889 10890 10890 10890 10890 10889 10890 10890 10891 10893 10894 10894 10894 10893 10893 10894 10895 10897 10900 10903 10905 10906 10907 10908 10909 10910 10912 10913 10916 10918 10918 10920 10922 10924 10927 10929 10932 10934 10937 10939 10942 10944 10946 10949 10951 10954 10956 10958
10875 10875 10875 10874 10874 10874 10875 10876 10877 10877 10878 10878 10879 10880 10880 10881 10882 10882 10882 10883 10883 10883 10883 10883 10883 10883 10883 10883 10883 10883 10884 10884 10885 10885 10885 10885 10885 10885 10885 10885 10885 10885 10886 10886 10885 10885 10885 10886 10886 10887 10888 10889 10889 10888 10889 10889 10890 10892 10894 10896 10899 10901 10901 10903 10904 10906 10908 10909 10911 10913 10913 10915 10917 10919 10922 10925 10927 10929 10932 10935 10938 10940 10942 10944 10947 10950 10952 10954
10872 10872 10871 10871 10870 10870 10871 10872 10873 10874 10874 10875 10875 10876 10876 10877 10877 10878 10878 10878 10879 10879 10879 10879 10879 10879 10879 10879 10879 10879 10879 10880 10880 10880 10881 10881 10881 10881 10881 10881 10881 10881 10881 10881 10881 10881 10881 10881 10882 10882 10883 10884 10884 10884 10884 10884 10885 10886 10888 10890 10893 10895 10896 10897 10899 10901 10903 10905 10906 10908 10908 10910 10913 10915 10917 10920 10922 10925 10928 10930 10933 10935 10938 10940 10943 10946 10948 10950
10868 10868 10868 10867 10867 10867 10867 10868 10869 10870 10871 10871 10871 10872 10873 10873 10873 10873 10874 10874 10875 10875 10875 10875 10875 10875 10875 10874 10874 10874 10875 10875 10875 10876 10876 10877 10877 10877 10877 10877 10877 10877 10877 10877 10877 10878 10877 10877 10877 10877 10877 10878 10879 10879 10879 10879 10880 10881 10882 10885 10887 10889 10891 10892 10893 10896 10898 10900 10901 10903 10904 10905 10908 10909 10911 10915 10918 10920 10923 10925 10928 10931 10933 10936 10939 10941 10943 10946
10864 10864 10864 10864 10864 10863 10863 10864 10865 10867 10868 10868 10868 10868 10869 10869 10869 10869 10869 10870 10870 10871 10871 10870 10870 10871 10870 10869 10870 10870 10870 10870 10871 10871 10872 10872 10873 10873 10873 10873 10873 10873 10873 10873 10874 10874 10873 10873 10873 10873 10873 10874 10875 10875 10874 10875 10876 10876 10877 10880 10882 10884 10885 10886 10888 10891 10893 10895 10896 10898 10899 10901 10903 10904 10906 10909 10913 10916 10918 10921 10923 10926 10929 10931 10934 10937 10939 10941
10861 10861 10861 10861 10860 10860 10860 10860 10862 10863 10864 10864 10864 10864 10865 10865 10865 10865 10865 10866 10866 10866 10866 10866 10866 10866 10865 10865 10865 10866 10866 10866 10866 10867 10868 10868 10869 10869 10869 10869 10869 10869 10869 10870 10870 10870 10870 10869 10869 10869 10869 10870 10870 10870 10870 10871 10872 10872 10874 10875 10877 10879 10880 10881 10883 10885 10887 10889 10892 10894 10895 10897 10898 10900 10902 10905 10907 10911 10914 10917 10919 10921 10924 10926 10929 10933 10935 10937
10857 10858 10857 10857 10857 10856 10856 10857 10858 10859 10860 10860 10860 10860 10860 10861 10861 10861 10861 10861 10861 10862 10862 10861 10861 10861 10860 10860 10861 10861 10862 10862 10862 10863 10863 10864 10865 10865 10865 10865 10865 10866 10866 10866 10867 10867 10867 10866 10866 10867 10866 10866 10867 10867 10868 10868 10869 10869 10870 10872 10873 10875 10875 10876 10878 10878 10881 10884 10887 10889 10891 10893 10894 10896 10898 10900 10903 10906 10909 10912 10914 10916 10919 10922 10925 10928 10932 10934
10854 10854 10854 10854 10853 10852 10852 10853 10854 10855 10856 10856 10856 10856 10856 10856 10856 10857 10857 10857 10857 10858 10857 10857 10857 10856 10856 10856 10857 10857 10858 10858 10859 10859 10860 10860 10861 10862 10862 10862 10862 10863 10863 10864 10864 10864 10864 10864 10864 10864 10863 10863 10864 10865 10865 10865 10866 10866 10867 10868 10870 10870 10870 10871 10872 10873 10876 10880 10882 10885 10886 10888 10891 10893 10895 10896 10898 10900 10903 10906 10909 10912 10914 10917 10920 10924 10927 10930
10851 10851 10851 10850 10850 10849 10848 10849 10850 10852 10852 10852 10851 10851 10852 10852 10852 10852 10853 10853 10853 10853 10853 10853 10852 10852 10852 10852 10853 10854 10854 10855 10856 10856 10857 10857 10858 10858 10859 10859 10860 10860 10861 10861 10861 10861 10861 10861 10861 10861 10861 10861 10862 10862 10862 10862 10863 10863 10864 10866 10866 10867 10867 10867 10867 10868 10871 10875 10877 10880 10882 10884 10887 10889 10890 10891 10893 10895 10897 10900 10903 10906 10909 10912 10916 10919 10922 10924
10849 10848 10848 10847 10847 10846 10846 10847 10847 10848 10848 10848 10847 10847 10848 10848 10848 10849 10849 10849 10849 10849 10850 10849 10849 10848 10849 10849 10850 10850 10851 10852 10853 10853 10854 10854 10855 10855 10856 10857 10857 10858 10858 10858 10858 10858 10858 10859 10859 10859 10859 10859 10860 10860 10860 10860 10860 10861 10862 10863 10863 10863 10864 10864 10864 10865 10867 10869 10872 10875 10878 10880 10882 10884 10886 10887 10888 10890 10891 10894 10897 10901 10904 10907 10910 10913 10916 10919
10846 10846 10846 10845 10844 10844 10844 10844 10845 10845 10845 10844 10844 10844 10844 10845 10845 10845 10846 10846 10846 10846 10846 10846 10845 10845 10846 10846 10846 10847 10848 10849 10850 10850 10851 10852 10852 10853 10854 10854 10855 10855 10856 10856 10856 10856 10856 10856 10856 10856 10857 10857 10857 10857 10858 10858 10858 10858 10859 10860 10860 10860 10860 10861 10861 10861 10862 10865 10867 10870 10873 10876 10878 10880 10882 10882 10883 10884 10886 10889 10892 10896 10899 10902 10905 10908 10911 10914
10845 10845 10844 10843 10843 10842 10842 10842 10842 10842 10842 10842 10842 10842 10842 10842 10842 10842 10843 10843 10843 10843 10843 10843 10843 10843 10843 10843 10844 10844 10845 10846 10847 10848 10848 10849 10850 10851 10851 10852 10852 10853 10853 10853 10853 10853 10853 10854 10854 10854 10855 10855 10855 10856 10856 10856 10856 10856 10856 10856 10857 10857 10858 10859 10859 10859 10859 10860 10863 10866 10869 10872 10874 10876 10877 10876 10877 10880 10882 10885 10888 10891 10895 10898 10901 10904 10906 10908
10844 10843 10843 10842 10841 10841 10840 10840 10840 10840 10840 10839 10840 10840 10840 10840 10840 10840 10840 10841 10841 10841 10841 10841 10841 10841 10841 10841 10841 10842 10843 10843 10844 10845 10846 10847 10847 10848 10848 10849 10849 10850 10850 10850 10851 10851 10851 10852 10852 10852 10853 10853 10854 10854 10854 10854 10854 10854 10853 10853 10854 10854 10855 10856 10856 10856 10855 10856 10860 10863 10865 10867 10869 10870 10871 10871 10873 10876 10878 10880 10883 10887 10890 10893 10896 10898 10901 10903
10843 10842 10842 10841 10840 10839 10839 10838 10838 10838 10837 10837 10837 10838 10838 10838 10837 10838 10838 10838 10839 10839 10839 10839 10839 10839 10839 10839 10839 10840 10840 10841 10842 10843 10843 10844 10844 10845 10846 10846 10847 10847 10848 10848 10848 10849 10849 10850 10850 10851 10852 10852 10852 10853 10852 10852 10852 10852 10851 10851 10851 10851 10851 10852 10853 10853 10852 10853 10856 10859 10861 10862 10863 10865 10866 10867 10870 10872 10874 10877 10879 10882 10885 10888 10891 10893 10896 10899
10841 10841 10840 10840 10839 10838 10838 10837 10837 10836 10836 10835 10835 10835 10835 10835 10835 10835 10836 10836 10836 10836 10836 10836 10836 10836 10837 10837 10837 10838 10838 10839 10839 10840 10840 10841 10842 10842 10843 10843 10844 10845 10845 10846 10847 10847 10847 10848 10849 10850 10850 10850 10851 10851 10850 10850 10851 10850 10850 10849 10848 10847 10847 10848 10849 10850 10850 10850 10853 10855 10857 10858 10858 10861 10863 10864 10867 10869 10871 10873 10875 10878 10880 10883 10885 10888 10891 10894
10839 10839 10838 10838 10838 10837 10836 10836 10835 10835 10834 10834 10833 10833 10833 10833 10833 10833 10834 10834 10834 10834 10834 10834 10834 10834 10834 10835 10835 10836 10836 10837 10837 10837 10838 10838 10839 10840 10840 10841 10842 10842 10843 10844 10845 10845 10846 10847 10848 10848 10849 10849 10849 10849 10848 10849 10849 10848 10848 10847 10846 10845 10844 10845 10846 10846 10847 10848 10850 10852 10853 10853 10855 10858 10860 10861 10864 10866 10867 10869 10870 10872 10875 10878 10880 10883 10886 10889
10836 10836 10836 10836 10836 10835 10835 10835 10834 10834 10833 10832 10832 10831 10831 10831 10831 10831 10831 10832 10832 10831 10831 10831 10831 10831 10832 10832 10833 10833 10834 10834 10834 10835 10835 10836 10837 10837 10838 10839 10839 10840 10841 10842 10843 10844 10845 10846 10846 10847 10847 10847 10847 10847 10847 10847 10847 10846 10846 10845 10844 10843 10842 10842 10842 10842 10842 10844 10846 10848 10849 10849 10852 10855 10856 10857 10860 10862 10863 10864 10865 10867 10870 10873 10876 10878 10881 10885
10834 10833 10833 10834 10834 10833 10833 10833 10833 10832 10831 10831 10830 10830 10829 10829 10829 10829 10829 10830 10829 10829 10829 10829 10829 10829 10829 10830 10830 10831 10831 10832 10832 10832 10833 10833 10834 10835 10835 10836 10837 10838 10839 10840 10842 10843 10844 10845 10845 10845 10845 10845 10845 10845 10845 10845 10845 10845 10844 10843 10842 10841 10839 10839 10839 10838 10839 10841 10843 10844 10844 10846 10849 10852 10853 10853 10855 10856 10858 10859 10861 10863 10866 10868 10871 10874 10877 10881
10831 10831 10831 10831 10831 10831 10831 10831 10831 10830 10830 10829 10829 10828 10828 10827 10827 10827 10827 10827 10827 10827 10827 10826 10827 10827 10827 10827 10828 10828 10829 10829 10830 10830 10830 10831 10832 10832 10833 10834 10835 10837 10838 10839 10840 10841 10842 10843 10843 10844 10844 10844 10844 10843 10844 10844 10844 10844 10843 10842 10840 10837 10835 10835 10836 10835 10836 10837 10839 10840 10841 10843 10846 10848 10848 10849 10850 10851 10853 10855 10857 10859 10862 10864 10867 10870 10873 10877
10829 10828 10828 10828 10828 10828 10829 10829 10829 10828 10828 10827 10827 10827 10826 10826 10825 10825 10824 10824 10824 10824 10824 10824 10824 10825 10825 10825 10826 10826 10827 10827 10827 10828 10828 10829 10829 10830 10831 10833 10834 10835 10836 10838 10839 10840 10840 10841 10841 10842 10842 10842 10842 10842 10842 10842 10842 10842 10841 10839 10837 10834 10832 10832 10831 10831 10832 10833 10835 10836 10837 10840 10843 10845 10845 10845 10846 10847 10848 10851 10852 10855 10858 10861 10863 10866 10869 10874
10826 10825 10825 10825 10825 10825 10825 10826 10826 10826 10826 10825 10825 10825 10825 10825 10824 10823 10822 10822 10822 10821 10822 10822 10822 10823 10823 10823 10824 10824 10825 10825 10825 10826 10826 10827 10828 10829 10830 10831 10833 10834 10835 10836 10837 10838 10838 10839 10839 10840 10840 10841 10841 10841 10841 10840 10840 10840 10838 10837 10835 10832 10830 10829 10828 10828 10828 10829 10831 10832 10834 10835 10838 10841 10840 10840 10842 10843 10845 10847 10848 10851 10854 10857 10860 10863 10866 10871
10822 10822 10822 10822 10822 10822 10822 10822 10823 10823 10823 10823 10823 10823 10823 10823 10822 10821 10820 10820 10820 10820 10820 10821 10821 10821 10822 10822 10822 10823 10823 10823 10824 10824 10825 10826 10827 10828 10829 10830 10831 10832 10833 10834 10835 10836 10837 10837 10837 10838 10839 10839 10839 10839 10839 10838 10838 10837 10836 10835 10834 10831 10829 10827 10826 10825 10825 10826 10828 10829 10829 10831 10833 10835 10835 10835 10837 10839 10841 10843 10845 10847 10850 10854 10857 10860 10863 10868
10819 10819 10819 10819 10819 10819 10819 10819 10819 10820 10820 10820 10820 10821 10821 10821 10820 10819 10818 10818 10818 10819 10819 10819 10819 10820 10820 10820 10820 10821 10821 10822 10823 10823 10824 10825 10826 10827 10828 10829 10829 10830 10831 10832 10833 10834 10835 10835 10836 10837 10837 10837 10838 10837 10837 10836 10835 10835 10834 10833 10832 10830 10828 10826 10825 10824 10823 10824 10824 10825 10825 10827 10828 10829 10830 10832 10834 10836 10838 10840 10842 10844 10847 10851 10854 10858 10861 10865
10816 10815 10815 10815 10816 10816 10816 10815 10816 10816 10816 10817 10817 10818 10819 10819 10818 10817 10817 10816 10817 10817 10817 10817 10817 10817 10818 10818 10818 10819 10820 10820 10821 10822 10822 10823 10824 10825 10826 10827 10828 10829 10829 10831 10832 10833 10833 10834 10834 10835 10835 10835 10836 10836 10835 10835 10834 10833 10833 10832 10830 10828 10827 10825 10823 10822 10822 10822 10822 10822 10822 10823 10824 10825 10827 10829 10831 10833 10835 10837 10839 10842 10844 10848 10852 10855 10859 10861
10812 10812 10812 10812 10812 10812 10811 10812 10812 10812 10813 10813 10814 10815 10815 10816 10816 10816 10815 10814 10814 10815 10815 10815 10815 10815 10816 10816 10816 10817 10817 10818 10819 10820 10821 10822 10823 10824 10824 10825 10826 10827 10828 10829 10830 10831 10832 10832 10832 10833 10833 10833 10834 10834 10834 10833 10833 10833 10831 10830 10828 10826 10825 10824 10822 10821 10820 10820 10819 10819 10820 10820 10822 10824 10826 10827 10828 10830 10832 10834 10837 10840 10842 10845 10849 10853 10856 10858
10809 10809 10808 10808 10808 10808 10807 10807 10808 10808 10809 10810 10810 10811 10812 10812 10813 10813 10813 10812 10812 10812 10813 10814 10814 10814 10814 10814 10814 10815 10816 10816 10817 10818 10819 10820 10821 10822 10823 10824 10825 10826 10826 10827 10828 10829 10830 10830 10830 10831 10831 10832 10832 10832 10832 10831 10832 10832 10830 10829 10827 10826 10824 10822 10821 10819 10819 10818 10818 10818 10818 10818 10820 10822 10824 10825 10826 10828 10830 10832 10834 10837 10840 10843 10846 10850 10853 10855
10805 10805 10804 10803 10804 10803 10803 10803 10803 10804 10804 10805 10806 10807 10808 10809 10809 10810 10811 10811 10811 10810 10811 10812 10813 10813 10813 10813 10813 10814 10814 10815 10815 10816 10817 10818 10819 10820 10821 10822 10823 10824 10824 10825 10826 10827 10828 10828 10829 10829 10830 10830 10831 10831 10830 10830 10830 10830 10828 10827 10826 10824 10823 10822 10820 10819 10817 10817 10817 10817 10817 10817 10819 10820 10822 10823 10824 10826 10827 10829 10831 10835 10838 10840 10843 10846 10849 10851
10801 10800 10800 10799 10798 10798 10798 10798 10798 10799 10800 10801 10802 10803 10804 10805 10806 10807 10808 10809 10809 10808 10808 10809 10811 10811 10811 10812 10812 10813 10813 10814 10814 10815 10816 10817 10818 10819 10820 10821 10822 10822 10822 10824 10824 10825 10826 10827 10827 10827 10828 10829 10829 10830 10830 10829 10829 10828 10826 10825 10824 10823 10822 10821 10820 10818 10817 10816 10816 10815 10816 10816 10817 10817 10819 10820 10821 10823 10825 10826 10829 10832 10835 10837 10840 10842 10844 10848
10796 10796 10795 10794 10793 10793 10794 10794 10794 10794 10795 10796 10797 10798 10800 10801 10801 10803 10804 10806 10806 10806 10806 10806 10807 10809 10810 10810 10810 10811 10812 10813 10813 10814 10814 10815 10816 10817 10818 10819 10820 10820 10821 10822 10823 10823 10824 10825 10825 10826 10826 10827 10828 10828 10828 10828 10828 10827 10826 10824 10823 10822 10821 10819 10818 10818 10816 10815 10814 10814 10815 10816 10816 10816 10816 10817 10819 10821 10822 10825 10827 10830 10833 10835 10836 10838 10841 10844
10792 10792 10791 10789 10789 10789 10789 10790 10790 10790 10790 10791 10792 10793 10795 10796 10797 10799 10800 10801 10802 10803 10803 10804 10804 10805 10807 10807 10808 10809 10810 10811 10812 10812 10813 10814 10814 10815 10816 10817 10818 10818 10819 10820 10821 10822 10822 10823 10824 10824 10825 10825 10826 10826 10826 10826 10825 10825 10825 10824 10823 10822 10820 10819 10818 10817 10816 10814 10814 10813 10814 10816 10816 10815 10815 10816 10817 10818 10820 10822 10825 10828 10831 10832 10833 10835 10838 10841
10788 10788 10787 10785 10784 10784 10785 10785 10786 10786 10786 10787 10788 10789 10790 10792 10793 10794 10795 10797 10798 10799 10800 10801 10801 10802 10803 10804 10805 10806 10807 10808 10809 10810 10811 10812 10812 10813 10813 10814 10815 10816 10817 10818 10819 10820 10821 10822 10822 10822 10823 10823 10824 10824 10824 10824 10823 10823 10823 10823 10822 10821 10820 10819 10818 10817 10815 10814 10813 10812 10814 10815 10814 10813 10814 10815 10815 10816 10818 10820 10822 10826 10829 10830 10831 10832 10835 10838
10783 10783 10782 10782 10781 10780 10780 10781 10782 10782 10783 10783 10784 10785 10786 10787 10789 10789 10790 10792 10794 10795 10796 10797 10798 10799 10799 10800 10801 10803 10804 10805 10806 10807 10808 10809 10810 10811 10811 10812 10813 10814 10815 10816 10817 10818 10819 10820 10820 10821 10821 10821 10822 10822 10822 10822 10822 10822 10822 10821 10820 10820 10819 10819 10818 10817 10815 10814 10812 10811 10812 10813 10813 10812 10813 10814 10814 10815 10816 10818 10820 10823 10826 10827 10828 10829 10832 10835
10779 10779 10778 10777 10777 10776 10776 10776 10777 10778 10779 10779 10780 10781 10782 10783 10784 10784 10785 10787 10789 10791 10792 10793 10794 10795 10796 10796 10797 10798 10800 10801 10803 10804 10805 10806 10807 10808 10809 10810 10811 10812 10813 10813 10814 10816 10817 10818 10819 10819 10819 10819 10820 10820 10820 10820 10820 10820 10820 10819 10819 10819 10819 10818 10817 10816 10814 10813 10812 10810 10810 10811 10811 10811 10812 10813 10813 10813 10814 10816 10818 10821 10823 10824 10824 10826 10828 10833
10774 10774 10774 10773 10772 10772 10772 10772 10772 10773 10774 10775 10776 10777 10778 10779 10780 10780 10781 10782 10784 10786 10787 10788 10789 10790 10791 10792 10793 10794 10796 10797 10798 10800 10801 10802 10804 10805 10806 10808 10809 10810 10811 10811 10812 10813 10814 10816 10817 10817 10817 10817 10818 10818 10818 10818 10818 10818 10818 10818 10818 10818 10818 10817 10816 10815 10814 10812 10811 10810 10809 10808 10808 10809 10810 10811 10812 10812 10813 10814 10816 10818 10820 10822 10822 10823 10826 10830
10770 10769 10769 10768 10768 10768 10768 10768 10768 10769 10770 10771 10771 10772 10774 10775 10776 10776 10777 10778 10779 10781 10783 10784 10785 10785 10786 10787 10788 10790 10791 10793 10794 10795 10797 10798 10799 10800 10802 10804 10805 10806 10808 10809 10810 10810 10811 10812 10814 10814 10815 10815 10815 10816 10816 10816 10816 10816 10816 10816 10817 10817 10817 10816 10816 10814 10813 10812 10811 10810 10808 10807 10806 10807 10807 10808 10809 10811 10811 10812 10813 10816 10818 10820 10821 10821 10823 10827
10766 10765 10764 10764 10763 10763 10764 10764 10764 10765 10766 10766 10767 10768 10769 10771 10772 10772 10772 10773 10774 10776 10777 10779 10780 10781 10782 10782 10784 10785 10786 10788 10790 10791 10792 10793 10795 10796 10798 10800 10801 10802 10804 10805 10806 10807 10807 10808 10810 10811 10812 10813 10813 10813 10814 10814 10814 10814 10814 10814 10815 10815 10815 10815 10815 10814 10812 10811 10810 10809 10808 10807 10806 10805 10805 10805 10806 10807 10808 10810 10811 10813 10816 10817 10818 10818 10820 10823
10761 10761 10760 10759 10759 10759 10760 10760 10760 10761 10762 10763 10763 10764 10765 10766 10767 10768 10768 10769 10770 10771 10772 10774 10774 10775 10777 10778 10779 10781 10781 10783 10785 10786 10787 10788 10790 10791 10794 10796 10797 10797 10799 10801 10803 10804 10804 10804 10805 10807 10808 10809 10810 10810 10811 10811 10811 10811 10811 10812 10812 10813 10813 10813 10813 10813 10812 10811 10809 10809 10808 10806 10805 10804 10804 10804 10804 10805 10806 10808 10809 10811 10812 10813 10814 10814 10816 10819
10757 10756 10756 10755 10755 10755 10755 10756 10757 10757 10758 10759 10759 10759 10760 10762 10763 10764 10764 10765 10766 10766 10767 10768 10769 10770 10772 10773 10775 10776 10777 10778 10779 10781 10782 10783 10785 10787 10789 10791 10792 10793 10794 10796 10798 10800 10801 10801 10802 10803 10805 10805 10805 10806 10808 10808 10809 10809 10808 10808 10809 10810 10810 10811 10812 10812 10811 10810 10809 10808 10807 10806 10804 10803 10803 10802 10803 10803 10804 10805 10807 10808 10809 10810 10810 10811 10813 10816
10752 10752 10751 10751 10750 10750 10751 10752 10753 10753 10754 10755 10755 10756 10756 10757 10758 10759 10760 10760 10761 10761 10762 10763 10764 10765 10767 10768 10770 10771 10772 10773 10774 10775 10776 10777 10780 10782 10783 10786 10788 10789 10790 10792 10793 10795 10797 10798 10798 10799 10800 10800 10801 10802 10804 10805 10806 10805 10805 10805 10806 10807 10807 10808 10809 10810 10810 10809 10808 10807 10806 10805 10804 10803 10802 10801 10801 10801 10802 10803 10804 10805 10806 10807 10808 10809 10811 10813